This is the latest recevied weather packets stored in our database for station/object KV4OP. If no packets are shown the sender has not sent any weather packets the latest 10 day(s).
| Time | Temp. | Humidity | Pressure | Rain* | Wind** | Luminosity | Snow |
|---|---|---|---|---|---|---|---|
| 1777687210 | 27.22° C | 63% | 1011.4 hPa | 0 mm | - | - | - |
| 1777686911 | 27.22° C | 65% | 1011.3 hPa | 0 mm | - | - | - |
| 1777686610 | 27.22° C | 69% | 1011.4 hPa | 0 mm | - | - | - |
| 1777686310 | 27.78° C | 71% | 1011.3 hPa | 0 mm | - | - | - |
| 1777686009 | 27.78° C | 71% | 1011.3 hPa | 0 mm | - | - | - |
| 1777685711 | 27.78° C | 71% | 1011.3 hPa | 0 mm | - | - | - |
| 1777685409 | 28.33° C | 71% | 1011.2 hPa | 0 mm | - | - | - |
| 1777685111 | 28.33° C | 69% | 1011.2 hPa | 0 mm | - | - | - |
| 1777684809 | 28.89° C | 68% | 1011.2 hPa | 0 mm | - | - | - |
| 1777684513 | 29.44° C | 67% | 1011.2 hPa | 0 mm | - | - | - |
| 1777684208 | 29.44° C | 64% | 1011.1 hPa | 0 mm | - | - | - |
| 1777683908 | 30° C | 58% | 1011 hPa | 0 mm | - | - | - |
| 1777683611 | 30° C | 57% | 1011 hPa | 0 mm | - | - | - |
| 1777683308 | 30° C | 56% | 1011 hPa | 0 mm | - | - | - |
| 1777683007 | 30.56° C | 54% | 1010.7 hPa | 0 mm | - | - | - |
| 1777682725 | 30.56° C | 53% | 1010.6 hPa | 0 mm | - | - | - |
| 1777682408 | 30.56° C | 54% | 1010.4 hPa | 0 mm | - | - | - |
| 1777682108 | 30° C | 55% | 1010.4 hPa | 0 mm | - | - | - |
| 1777681808 | 30° C | 55% | 1010.1 hPa | 0 mm | - | - | - |
| 1777681508 | 30° C | 56% | 1010 hPa | 0 mm | - | - | - |
| 1777681207 | 30° C | 55% | 1010 hPa | 0 mm | - | - | - |
| 1777680907 | 30.56° C | 54% | 1009.9 hPa | 0 mm | - | - | - |
| 1777680605 | 30.56° C | 54% | 1009.8 hPa | 0 mm | - | - | - |
| 1777680305 | 30.56° C | 54% | 1009.7 hPa | 0 mm | - | - | - |
| 1777680006 | 30.56° C | 54% | 1009.7 hPa | 0 mm | - | - | - |
* Rain latest hour (hover to see other rain measurements)
** Current wind speed in m/s (hover to see current wind gust speed)